Weather History for Morganton, NC

Change the Weather History Date:

Sunday, May 18, 2014

  Actual Average (KHKY) Record (KHKY)
Temperature  
Mean Temperature 56 °F -  
Max Temperature 65 °F 79 °F 92 °F (1960)
Min Temperature 46 °F 54 °F 36 °F (1973)
Degree Days  
Heating Degree Days 10    
Growing Degree Days 6 (Base 50)    
Moisture  
Dew Point 46 °F    
Average Humidity 76    
Maximum Humidity 99    
Minimum Humidity 45    
Precipitation  
Precipitation 0.00 in - - ()
Sea Level Pressure  
Sea Level Pressure 30.26 in    
Wind  
Wind Speed 2 mph (SSW)    
Max Wind Speed 7 mph    
Max Gust Speed -    
Visibility 10 miles    
Events      
Averages and records for this station are not official NWS values.
T = Trace of Precipitation, MM = Missing Value Source: NWS Daily Summary

Daily Weather History Graph

Daily Weather History Graph

Search for Another Location

Airport:

Trip Planner

Search our weather history database for the weather conditions in past years. The results will help you decide how hot, cold, wet, or windy it might be!

Date:

Astronomy

May. 18, 2014 Rise Set
Actual Time 6:18 AM EDT 8:27 PM EDT
Civil Twilight 5:50 AM EDT 8:56 PM EDT
Nautical Twilight 5:15 AM EDT 9:31 PM EDT
Astronomical Twilight 4:37 AM EDT 10:09 PM EDT
Moon No Moon Rise 10:04 AM EDT (5/18)
Length of Visible Light 15h 05m
Length of Day
14h 08m
Waning Gibbous, 81% of the Moon is Illuminated
May 18
Waning Gibbous
May 21
Last Quarter
May 28
New
Jun 5
First Quarter
Jun 13
Full

Hourly Weather History & Observations

Time (EDT) Temp. Dew Point Humidity Pressure Visibility Wind Dir Wind Speed Gust Speed Precip Events Conditions
12:15 AM 54.5 °F 45.1 °F 71% 30.24 in 10.0 mi NW 3.5 mph - N/A   Mostly Cloudy
12:35 AM 53.2 °F 43.9 °F 71% 30.25 in 10.0 mi NNW 3.5 mph - N/A   Scattered Clouds
12:55 AM 48.6 °F 45.0 °F 87% 30.26 in 10.0 mi Calm Calm - N/A   Clear
1:15 AM 46.9 °F 45.3 °F 94% 30.26 in 10.0 mi Calm Calm - N/A   Clear
1:35 AM 46.9 °F 46.0 °F 97% 30.26 in 10.0 mi NW 3.5 mph - N/A   Mostly Cloudy
1:55 AM 50.0 °F 46.4 °F 87% 30.26 in 10.0 mi NW 3.5 mph - N/A   Overcast
2:15 AM 50.2 °F 47.3 °F 90% 30.26 in 10.0 mi Calm Calm - N/A   Mostly Cloudy
2:35 AM 48.6 °F 47.1 °F 95% 30.25 in 10.0 mi NNW 3.5 mph - N/A   Scattered Clouds
2:55 AM 48.9 °F 45.5 °F 88% 30.24 in 10.0 mi North 3.5 mph - N/A   Clear
3:15 AM 51.1 °F 45.5 °F 81% 30.24 in 10.0 mi Calm Calm - N/A   Clear
3:35 AM 51.4 °F 45.5 °F 80% 30.23 in 10.0 mi NNW 3.5 mph - N/A   Clear
3:55 AM 50.0 °F 46.0 °F 86% 30.23 in 10.0 mi Calm Calm - N/A   Clear
4:15 AM 49.6 °F 46.0 °F 87% 30.24 in 10.0 mi North 3.5 mph - N/A   Clear
4:35 AM 49.1 °F 46.6 °F 91% 30.25 in 10.0 mi Calm Calm - N/A   Clear
4:55 AM 48.6 °F 46.0 °F 91% 30.24 in 10.0 mi Calm Calm - N/A   Clear
5:15 AM 48.4 °F 47.3 °F 96% 30.25 in 10.0 mi Calm Calm - N/A   Clear
5:35 AM 48.2 °F 47.3 °F 97% 30.26 in 10.0 mi Calm Calm - N/A   Scattered Clouds
5:55 AM 47.7 °F 47.1 °F 98% 30.26 in 10.0 mi Calm Calm - N/A   Scattered Clouds
6:15 AM 47.8 °F 47.5 °F 99% 30.27 in 10.0 mi Calm Calm - N/A   Scattered Clouds
6:35 AM 48.0 °F 47.8 °F 99% 30.27 in 10.0 mi Calm Calm - N/A   Scattered Clouds
6:55 AM 48.6 °F 48.4 °F 99% 30.28 in 7.0 mi Calm Calm - N/A   Scattered Clouds
7:15 AM 48.6 °F 48.4 °F 99% 30.29 in 7.0 mi North 3.5 mph - N/A   Mostly Cloudy
7:35 AM 49.5 °F 48.7 °F 97% 30.28 in 10.0 mi Calm Calm - N/A   Overcast
7:55 AM 50.9 °F 48.4 °F 91% 30.30 in 10.0 mi Calm Calm - N/A   Overcast
8:15 AM 51.1 °F 49.1 °F 93% 30.29 in 10.0 mi Calm Calm - N/A   Mostly Cloudy
8:35 AM 50.9 °F 48.6 °F 92% 30.30 in 10.0 mi Calm Calm - N/A   Mostly Cloudy
8:55 AM 52.0 °F 49.1 °F 90% 30.29 in 10.0 mi SSE 3.5 mph - N/A   Mostly Cloudy
9:15 AM 53.1 °F 49.8 °F 89% 30.30 in 10.0 mi Calm Calm - N/A   Mostly Cloudy
9:35 AM 52.5 °F 49.6 °F 90% 30.29 in 10.0 mi Calm Calm - N/A   Mostly Cloudy
9:55 AM 54.5 °F 50.0 °F 85% 30.29 in 10.0 mi Calm Calm - N/A   Mostly Cloudy
10:15 AM 54.7 °F 49.3 °F 82% 30.30 in 10.0 mi NNW 5.8 mph - N/A   Overcast
10:35 AM 55.0 °F 46.9 °F 74% 30.31 in 10.0 mi Calm Calm - N/A   Overcast
10:55 AM 57.2 °F 45.0 °F 64% 30.30 in 10.0 mi NE 3.5 mph - N/A   Overcast
11:15 AM 58.5 °F 43.3 °F 57% 30.31 in 10.0 mi SSE 3.5 mph - N/A   Overcast
11:35 AM 58.1 °F 42.4 °F 56% 30.31 in 10.0 mi SE 3.5 mph - N/A   Overcast
11:55 AM 59.0 °F 43.0 °F 55% 30.30 in 10.0 mi SSE 3.5 mph - N/A   Overcast
12:15 PM 59.7 °F 40.8 °F 50% 30.31 in 10.0 mi Calm Calm - N/A   Overcast
12:35 PM 59.4 °F 40.3 °F 49% 30.31 in 10.0 mi South 3.5 mph - N/A   Overcast
12:55 PM 60.1 °F 41.0 °F 49% 30.30 in 10.0 mi Calm Calm - N/A   Overcast
1:15 PM 59.9 °F 39.9 °F 48% 30.29 in 10.0 mi Calm Calm - N/A   Overcast
1:35 PM 61.5 °F 40.1 °F 45% 30.29 in 10.0 mi SSE 3.5 mph - N/A   Overcast
1:55 PM 61.0 °F 39.9 °F 46% 30.28 in 10.0 mi Calm Calm - N/A   Scattered Clouds
2:15 PM 62.4 °F 42.6 °F 48% 30.27 in 10.0 mi South 5.8 mph - N/A   Clear
2:35 PM 62.4 °F 40.8 °F 45% 30.27 in 10.0 mi SSW 3.5 mph - N/A   Clear
2:55 PM 62.2 °F 41.9 °F 47% 30.27 in 10.0 mi SE 4.6 mph - N/A   Clear
3:15 PM 62.6 °F 42.3 °F 47% 30.26 in 10.0 mi South 4.6 mph - N/A   Clear
3:35 PM 63.5 °F 42.4 °F 46% 30.25 in 10.0 mi Calm Calm - N/A   Clear
3:55 PM 63.5 °F 43.2 °F 47% 30.24 in 10.0 mi Calm Calm - N/A   Clear
4:15 PM 64.2 °F 44.2 °F 48% 30.24 in 10.0 mi SE 4.6 mph - N/A   Clear
4:35 PM 64.2 °F 44.6 °F 49% 30.23 in 10.0 mi SSE 3.5 mph - N/A   Clear
4:55 PM 64.9 °F 46.4 °F 51% 30.23 in 10.0 mi SW 6.9 mph - N/A   Scattered Clouds
5:15 PM 64.8 °F 45.5 °F 50% 30.23 in 10.0 mi South 3.5 mph - N/A   Scattered Clouds
5:35 PM 64.9 °F 46.0 °F 50% 30.22 in 10.0 mi SW 5.8 mph - N/A   Scattered Clouds
5:55 PM 65.5 °F 46.4 °F 50% 30.22 in 10.0 mi SSW 3.5 mph - N/A   Clear
6:15 PM 64.9 °F 46.9 °F 52% 30.22 in 10.0 mi West 3.5 mph - N/A   Clear
6:35 PM 64.0 °F 46.4 °F 53% 30.22 in 10.0 mi Calm Calm - N/A   Clear
6:55 PM 63.5 °F 47.5 °F 56% 30.22 in 10.0 mi SSW 3.5 mph - N/A   Clear
7:15 PM 63.5 °F 49.3 °F 60% 30.22 in 10.0 mi Calm Calm - N/A   Clear
7:35 PM 62.1 °F 50.0 °F 65% 30.22 in 10.0 mi Calm Calm - N/A   Scattered Clouds
7:55 PM 60.1 °F 52.3 °F 76% 30.23 in 10.0 mi Calm Calm - N/A   Scattered Clouds
8:15 PM 57.0 °F 53.8 °F 89% 30.23 in 10.0 mi Calm Calm - N/A   Scattered Clouds
8:35 PM 55.0 °F 53.2 °F 94% 30.24 in 10.0 mi Calm Calm - N/A   Scattered Clouds
8:55 PM 53.1 °F 51.6 °F 95% 30.24 in 10.0 mi Calm Calm - N/A   Scattered Clouds
9:15 PM 52.0 °F 51.1 °F 97% 30.24 in 10.0 mi Calm Calm - N/A   Clear
9:35 PM 50.5 °F 50.0 °F 98% 30.25 in 10.0 mi Calm Calm - N/A   Scattered Clouds
9:55 PM 50.0 °F 49.5 °F 98% 30.26 in 10.0 mi Calm Calm - N/A   Scattered Clouds
10:15 PM 49.3 °F 48.7 °F 98% 30.27 in 10.0 mi Calm Calm - N/A   Scattered Clouds
10:35 PM 48.7 °F 48.4 °F 99% 30.27 in 10.0 mi Calm Calm - N/A   Clear
10:55 PM 47.5 °F 47.3 °F 99% 30.27 in 10.0 mi Calm Calm - N/A   Clear
11:15 PM 46.6 °F 46.4 °F 99% 30.27 in 10.0 mi Calm Calm - N/A   Clear
11:35 PM 46.4 °F 46.2 °F 99% 30.27 in 10.0 mi Calm Calm - N/A   Clear
11:55 PM 46.0 °F 45.9 °F 99% 30.27 in 10.0 mi Calm Calm - N/A   Clear